Big Bear City, CA

4:00 PM PDT on September 19, 2019 (GMT -0700)
Big Bear City

Weather History for KL35 - August, 2019

Change the Weather History Date:

Sunday, August 25, 2019

  Actual Average (KBUO) Record (KBUO)
Temperature  
Mean Temperature 62 °F -  
Max Temperature 78 °F 92 °F 100 °F (1999)
Min Temperature 46 °F 62 °F 60 °F (2001)
Degree Days  
Heating Degree Days 3    
Growing Degree Days 12 (Base 50)    
Moisture  
Dew Point 40 °F    
Average Humidity 47    
Maximum Humidity 71    
Minimum Humidity 23    
Precipitation  
Precipitation 0.00 in - - ()
Sea Level Pressure  
Sea Level Pressure 30.32 in    
Wind  
Wind Speed 2 mph (NNE)    
Max Wind Speed 10 mph    
Max Gust Speed 17 mph    
Visibility 10 miles    
Events      
Averages and records for this station are not official NWS values.
T = Trace of Precipitation, MM = Missing Value Source: NWS Daily Summary

Daily Weather History Graph

Daily Weather History Graph

Search for Another Location

Airport or City:

Astronomy

Aug. 25, 2019 Rise Set
Actual Time 6:15 AM PDT 7:22 PM PDT
Civil Twilight 5:49 AM PDT 7:48 PM PDT
Nautical Twilight 5:18 AM PDT 8:19 PM PDT
Astronomical Twilight 4:46 AM PDT 8:51 PM PDT
Moon 1:02 AM PDT (8/25) 3:39 PM PDT (8/25)
Length of Visible Light 13h 58m
Length of Day
13h 06m
Waning Crescent, 28% of the Moon is Illuminated
Aug 25
Waning Crescent
Aug 30
New
Sep 5
First Quarter
Sep 13
Full
Sep 21
Last Quarter

Hourly Weather History & Observations

Time (PDT) Temp. Dew Point Humidity Pressure Visibility Wind Dir Wind Speed Gust Speed Precip Events Conditions
12:15 AM 51.8 °F 37.4 °F 58% 30.33 in 10.0 mi Calm Calm - N/A   Clear
12:35 AM 51.8 °F 37.4 °F 58% 30.33 in 10.0 mi Calm Calm - N/A   Clear
12:55 AM 51.8 °F 39.2 °F 62% 30.32 in 10.0 mi Calm Calm - N/A   Clear
1:15 AM 51.8 °F 39.2 °F 62% 30.32 in 10.0 mi Calm Calm - N/A   Clear
1:35 AM 51.8 °F 39.2 °F 62% 30.32 in 10.0 mi Calm Calm - N/A   Clear
1:55 AM 50.0 °F 37.4 °F 62% 30.32 in 10.0 mi Calm Calm - N/A   Clear
2:15 AM 50.0 °F 37.4 °F 62% 30.32 in 10.0 mi Calm Calm - N/A   Clear
2:35 AM 50.0 °F 37.4 °F 62% 30.32 in 10.0 mi Calm Calm - N/A   Clear
2:55 AM 50.0 °F 37.4 °F 62% 30.32 in 10.0 mi Calm Calm - N/A   Clear
3:15 AM 50.0 °F 37.4 °F 62% 30.32 in 10.0 mi Calm Calm - N/A   Clear
3:35 AM 48.2 °F 37.4 °F 66% 30.32 in 10.0 mi Calm Calm - N/A   Clear
3:55 AM 48.2 °F 37.4 °F 66% 30.31 in 10.0 mi Calm Calm - N/A   Clear
4:15 AM 48.2 °F 37.4 °F 66% 30.32 in 10.0 mi Calm Calm - N/A   Clear
4:35 AM 46.4 °F 37.4 °F 71% 30.32 in 10.0 mi Calm Calm - N/A   Clear
4:55 AM 46.4 °F 37.4 °F 71% 30.32 in 10.0 mi Calm Calm - N/A   Clear
5:15 AM 46.4 °F 37.4 °F 71% 30.33 in 10.0 mi Calm Calm - N/A   Clear
5:35 AM 46.4 °F 37.4 °F 71% 30.33 in 10.0 mi Calm Calm - N/A   Clear
5:55 AM 46.4 °F 37.4 °F 71% 30.33 in 10.0 mi Calm Calm - N/A   Clear
6:15 AM 46.4 °F 37.4 °F 71% 30.34 in 10.0 mi Calm Calm - N/A   Clear
6:35 AM 46.4 °F 37.4 °F 71% 30.34 in 10.0 mi Calm Calm - N/A   Clear
6:55 AM 46.4 °F 37.4 °F 71% 30.35 in 10.0 mi Calm Calm - N/A   Clear
7:15 AM 50.0 °F 41.0 °F 71% 30.35 in 10.0 mi Calm Calm - N/A   Clear
7:35 AM 53.6 °F 42.8 °F 67% 30.35 in 10.0 mi Calm Calm - N/A   Clear
7:55 AM 55.4 °F 44.6 °F 67% 30.36 in 10.0 mi Calm Calm - N/A   Clear
8:15 AM 60.8 °F 42.8 °F 52% 30.35 in 10.0 mi Calm Calm - N/A   Clear
8:35 AM 62.6 °F 41.0 °F 45% 30.35 in 10.0 mi Calm Calm - N/A   Clear
8:55 AM 66.2 °F 42.8 °F 43% 30.35 in 10.0 mi Calm Calm - N/A   Clear
9:15 AM 69.8 °F 42.8 °F 38% 30.35 in 10.0 mi Calm Calm - N/A   Clear
9:35 AM 71.6 °F 41.0 °F 33% 30.35 in 10.0 mi Calm Calm - N/A   Clear
9:55 AM 73.4 °F 41.0 °F 31% 30.34 in 10.0 mi Calm Calm - N/A   Clear
10:15 AM 73.4 °F 41.0 °F 31% 30.34 in 10.0 mi Calm Calm - N/A   Clear
10:35 AM 75.2 °F 41.0 °F 29% 30.34 in 10.0 mi NNE 4.6 mph - N/A   Clear
10:55 AM 73.4 °F 41.0 °F 31% 30.34 in 10.0 mi East 5.8 mph - N/A   Clear
11:15 AM 75.2 °F 39.2 °F 27% 30.35 in 10.0 mi NE 6.9 mph - N/A   Clear
11:35 AM 77.0 °F 39.2 °F 26% 30.34 in 10.0 mi ENE 8.1 mph - N/A   Clear
12:15 PM 77.0 °F 39.2 °F 26% 30.34 in 10.0 mi East 9.2 mph 17.3 mph N/A   Clear
12:35 PM 77.0 °F 37.4 °F 24% 30.33 in 10.0 mi NE 8.1 mph - N/A   Clear
12:55 PM 77.0 °F 37.4 °F 24% 30.33 in 10.0 mi ENE 6.9 mph - N/A   Clear
1:15 PM 77.0 °F 37.4 °F 24% 30.33 in 10.0 mi NNE 3.5 mph - N/A   Clear
1:35 PM 77.0 °F 37.4 °F 24% 30.32 in 10.0 mi NE 6.9 mph - N/A   Scattered Clouds
1:55 PM 78.8 °F 37.4 °F 23% 30.32 in 10.0 mi Calm Calm - N/A   Scattered Clouds
2:15 PM 78.8 °F 39.2 °F 24% 30.31 in 10.0 mi ENE 5.8 mph - N/A   Clear
2:35 PM 77.0 °F 39.2 °F 26% 30.31 in 10.0 mi ENE 10.4 mph - N/A   Clear
2:55 PM 77.0 °F 39.2 °F 26% 30.31 in 10.0 mi East 3.5 mph - N/A   Clear
3:15 PM 78.8 °F 39.2 °F 24% 30.31 in 10.0 mi ENE 5.8 mph - N/A   Scattered Clouds
3:35 PM 78.8 °F 41.0 °F 26% 30.30 in 10.0 mi NNE 9.2 mph 16.1 mph N/A   Scattered Clouds
3:55 PM 78.8 °F 41.0 °F 26% 30.29 in 10.0 mi ENE 5.8 mph - N/A   Clear
4:15 PM 78.8 °F 39.2 °F 24% 30.29 in 10.0 mi North 8.1 mph - N/A   Clear
4:35 PM 78.8 °F 41.0 °F 26% 30.29 in 10.0 mi ENE 3.5 mph 16.1 mph N/A   Clear
4:55 PM 78.8 °F 44.6 °F 30% 30.29 in 10.0 mi West 6.9 mph - N/A   Clear
5:15 PM 77.0 °F 46.4 °F 34% 30.28 in 10.0 mi West 8.1 mph - N/A   Clear
5:35 PM 77.0 °F 46.4 °F 34% 30.29 in 10.0 mi West 8.1 mph - N/A   Clear
5:55 PM 75.2 °F 44.6 °F 34% 30.29 in 10.0 mi West 10.4 mph - N/A   Clear
6:15 PM 73.4 °F 44.6 °F 36% 30.28 in 10.0 mi West 8.1 mph - N/A   Clear
6:35 PM 73.4 °F 44.6 °F 36% 30.28 in 10.0 mi West 5.8 mph - N/A   Clear
6:55 PM 71.6 °F 42.8 °F 35% 30.28 in 10.0 mi West 5.8 mph - N/A   Clear
7:15 PM 69.8 °F 42.8 °F 38% 30.28 in 10.0 mi West 3.5 mph - N/A   Clear
7:35 PM 68.0 °F 42.8 °F 40% 30.28 in 10.0 mi WSW 3.5 mph - N/A   Clear
7:55 PM 68.0 °F 42.8 °F 40% 30.28 in 10.0 mi Calm Calm - N/A   Clear
8:15 PM 66.2 °F 42.8 °F 43% 30.28 in 10.0 mi Calm Calm - N/A   Clear
8:35 PM 64.4 °F 42.8 °F 45% 30.29 in 10.0 mi Calm Calm - N/A   Clear
9:15 PM 62.6 °F 44.6 °F 52% 30.30 in 10.0 mi Calm Calm - N/A   Clear
9:35 PM 60.8 °F 42.8 °F 52% 30.30 in 10.0 mi Calm Calm - N/A   Clear
10:15 PM 57.2 °F 41.0 °F 55% 30.30 in 10.0 mi Calm Calm - N/A   Clear
10:35 PM 57.2 °F 41.0 °F 55% 30.30 in 10.0 mi Calm Calm - N/A   Clear
10:55 PM 55.4 °F 41.0 °F 58% 30.29 in 10.0 mi Calm Calm - N/A   Clear
11:15 PM 53.6 °F 41.0 °F 62% 30.29 in 10.0 mi Calm Calm - N/A   Clear
11:35 PM 53.6 °F 41.0 °F 62% 30.29 in 10.0 mi Calm Calm - N/A   Clear
11:55 PM 53.6 °F 41.0 °F 62% 30.29 in 10.0 mi Calm Calm - N/A   Clear